DECAYED
Showing default

NOKHCHO, 61767 (Decayed)

Orbit data source: Space-Track

NOKHCHO, 61767 was a payload satellite owned by Chechen State U (CIS) in LEO that was launched on Mon, 04 Nov 2024 UTC via a SOYUZ-2-1B launch vehicle from the Vostochny Cosmodrome (VOSTO). Payload-class satellites include a variety of spacecraft equipped with specific instruments for various scientific and technological missions. These include communications satellites like Starlink; space stations such as the ISS; scientific satellites like the Hubble; Earth observation satellites from companies like Planet Labs, Umbra, and HawkEye 360; GPS; miniature CubeSats for education and research; and military/defense satellites.

Not visible in the next 10 days
Identifier
61767, 2024-199AJ
Orbit
Decayed
Country
Flag of CISCIS
Related business
Manufacturer
Yugo-Zapad. GU
Mission
Decayed Amateur Communications
Bus & Motor
CUBESAT 3U, Unknown motor
Mass
2.5 kg wet, 2.5 kg dry
Launch date (UTC)
2024-11-04 (2 years ago)
Launch vehicle
SOYUZ-2-1B
Launch site
Vostochny Cosmodrome (VOSTO)
Object type
Payload
Rocket body
Debris
Shape & HBR
Box, 0.2 m
Radar Cross Section
0.035 m², Medium (>0.1 m² and < 1m²)

Expand to show TLE details & history
Last TLE update: 9 months ago

TLE from 9 months ago
0 NOKHCHO
1 61767U 24199AJ  25363.38690139  .10165052  24539-5  11813-2 0  9994
2 61767  97.2732 240.1382 0004854  95.9620 264.2231 16.36835873108662
Epoch: 2025-12-29T09:17Z
TLE epoch observation values (Epoch: 2025-12-29T09:17:08.280Z)
Latitude
-0.00004°
Longitude
2.76844°
Altitude
177.806 km
Speed
7.799 km/s
True Right ascension
16h 00m 33s
True Declination
0° 00' 00"
Sunlit
Object was in daylight at epoch
Visualization orbit readout
Latitude
Unknown
Longitude
Unknown
Altitude
Unknown
Speed
Unknown
Apparent Right ascension
Unknown
Apparent Declination
Unknown
Sunlit
N/A
Visualization observer readout
Local Sidereal Time
08:07:23
Azimuth
Unknown
Elevation
Unknown
Doppler factor
Unknown
Orbital elements
Apogee altitude
174.218 km
Perigee altitude
167.86 km
Semi-major axis
6,549.176 km
Eccentricity
0.00049
Inclination
97.2732°
RAAN
240.1382°
Arg. of periapsis
95.962°
True anomaly
264.16776°
Mean anomaly
264.2231°
Eccentric anomaly
264.19543°
Mean motion
4.09509 °/min
Orbital period
87.91 mins
BSTAR
0.0011813
Loading maneuver chart data...
Computing Atmospheric mass density...
Loading historical data...
Loading historical data...
Loading historical data...
Loading historical data...
Loading historical data...
Loading historical data...
Loading historical data...

Documentation

Showing up to 5 results
|